Station WPOW1 - West Point, WA Image indicating link to RSS feed of recent meteorological observations for station WPOW1


Conditions at WPOW1 as of
(12:00 am PDT)
0700 GMT on 06/21/2024:
     

Click on the graph icon in the table below to see a time series plot of the last five days of that observation.

5-day plot - Wind Direction Wind Direction (WDIR): NE ( 40 deg true )
5-day plot - Wind Speed Wind Speed (WSPD): 9 kts
5-day plot - Wind Gust Wind Gust (GST): 9 kts
5-day plot - Atmospheric Pressure Atmospheric Pressure (PRES):29.97 in
5-day plot - Pressure Tendency Pressure Tendency (PTDY):+0.02 in ( Rising )
5-day plot - Air Temperature Air Temperature (ATMP): 62.1 °F
5-day plot - Dew Point Dew Point (DEWP): 50.7 °F
5-day plot - Wind Speed at 10 Meters Wind Speed at 10 meters (WSPD10M): 10 kts
5-day plot - Wind Speed at 20 Meters Wind Speed at 20 meters (WSPD20M): 10 kts
5-day plot -  Wind Speed, Wind Gust and Atmospheric Pressure Combined plot of Wind Speed, Gust, and Air Pressure
Continuous Winds
TIME
(PDT)
5-day plot - Wind Direction WDIR 5-day plot - Wind Speed WSPD
12:00 amNE ( 44 deg ) 8 kts
11:50 pmNE ( 44 deg ) 6 kts
11:40 pmNE ( 45 deg ) 7 kts
11:30 pmNE ( 44 deg ) 8 kts
11:20 pmNE ( 38 deg ) 9 kts
11:10 pmNE ( 36 deg ) 9 kts
 
Peak gust during the measurement hour
TIME
(PDT)
5-day plot - Gust Direction GDR 5-day plot - Gust Speed GST
11:11 pmNE ( 40 deg ) 11 kts
Previous observations
TIME
(PDT)
5-day plot - Wind Direction
WDIR
 
5-day plot - Wind Speed
WSPD
kts
5-day plot - Wind Gust
GST
kts
5-day plot - Wave Height
WVHT
ft
5-day plot - Dominant Wave Period
DPD
sec
5-day plot - Average Wave Period
APD
sec
5-day plot - Mean Wave Direction
MWD
 
5-day plot - Atmospheric Pressure
PRES
in
5-day plot - Pressure Tendency
PTDY
in
5-day plot - Air Temperature
ATMP
°F
5-day plot - Water Temperature
WTMP
°F
5-day plot - Dew Point
DEWP
°F
5-day plot - Salinity
SAL
psu
5-day plot - Visibility
VIS
nmi
5-day plot - Tide (above MLLW)
TIDE
ft
2024-06-20 11:00 pmNNE 9 10----29.96+0.01 63.1- 50.2---
2024-06-20 10:00 pm N 11 11----29.96+0.01 64.4- 50.9---
2024-06-20 09:00 pmNNE 13 13----29.95+0.00 65.7- 52.3---
2024-06-20 08:00 pmNNE 11 12----29.95-0.01 65.5- 51.4---
2024-06-20 07:00 pm NE 13 13----29.94-0.02 66.6- 52.3---
2024-06-20 06:00 pmNNE 17 19----29.94-0.03 67.8- 52.2---
2024-06-20 05:00 pmNNE 12 13----29.96-0.03 63.7- 53.8---
2024-06-20 04:00 pm NE 14 14----29.96-0.04 63.1- 53.8---
2024-06-20 03:00 pm NE 14 15----29.97-0.04 64.8- 52.2---
2024-06-20 02:00 pm NE 14 14----29.98-0.03 63.5- 53.6---
2024-06-20 01:00 pm NE 14 15----30.00-0.02 61.9- 55.0---
2024-06-20 12:00 pm NE 14 15----30.01-0.02 61.3- 54.7---
2024-06-20 11:00 amNNE 15 15----30.01-0.01 61.0- 52.9---
2024-06-20 10:00 amNNE 10 11----30.02+0.01 59.5- 53.4---
2024-06-20 09:00 amNNE 10 11----30.02+0.01 58.5- 53.4---
2024-06-20 08:00 am N 11 11----30.02+0.02 57.6- 54.5---
2024-06-20 07:00 amNNE 7 7----30.01+0.01 55.2- 54.5---
2024-06-20 06:00 am NE 5 5----30.01+0.02 54.9- 54.9---
2024-06-20 05:00 am N 4 5----30.00+0.01 54.7- 54.7---
2024-06-20 04:00 am N 4 5----30.00+0.01 55.2- 54.3---
2024-06-20 03:00 amNNE 6 8----29.99+0.00 56.8- 53.4---
2024-06-20 02:00 amNNE 3 3----29.98+0.00 56.8- 52.5---
2024-06-20 01:00 amNNE 7 7----29.98+0.01 57.7- 55.4---
2024-06-20 12:00 am N 10 11----29.99+0.03 58.3- 53.8---